Time,TemperatureF,DewpointF,PressureIn,WindDirection,WindDirectionDegrees,WindSpeedMPH,WindSpeedGustMPH,Humidity,HourlyPrecipIn,Conditions,Clouds,dailyrainin,SoftwareType,DateUTC
2013-04-23 00:00:00,34.9,15.2,30.46,North,353,0.0,0.0,44,0.00,,CLR,0.00,VWS V14.01,2013-04-23 04:00:00,
2013-04-23 00:01:00,34.9,15.2,30.46,North,350,0.0,0.0,44,0.00,,CLR,0.00,VWS V14.01,2013-04-23 04:01:00,
2013-04-23 00:06:00,34.0,15.4,30.46,North,353,4.9,4.9,46,0.00,,CLR,0.00,VWS V14.01,2013-04-23 04:06:00,
2013-04-23 00:11:00,34.0,16.8,30.46,NNW,346,2.2,2.7,49,0.00,,CLR,0.00,VWS V14.01,2013-04-23 04:11:00,
2013-04-23 00:16:00,34.2,17.5,30.46,NNE,20,5.4,5.4,50,0.00,,CLR,0.00,VWS V14.01,2013-04-23 04:16:00,
2013-04-23 00:21:00,34.3,17.6,30.46,NNW,338,3.1,3.1,50,0.00,,CLR,0.00,VWS V14.01,2013-04-23 04:21:00,
2013-04-23 00:26:00,34.3,17.2,30.46,NNW,340,3.1,3.1,49,0.00,,CLR,0.00,VWS V14.01,2013-04-23 04:26:00,
2013-04-23 00:31:00,34.0,16.8,30.46,NNW,343,3.1,3.6,49,0.00,,CLR,0.00,VWS V14.01,2013-04-23 04:31:00,
2013-04-23 00:36:00,34.3,17.2,30.46,NNW,329,0.0,3.1,49,0.00,,CLR,0.00,VWS V14.01,2013-04-23 04:36:00,
2013-04-23 00:41:00,33.8,16.2,30.46,NNW,329,0.0,0.0,48,0.00,,CLR,0.00,VWS V14.01,2013-04-23 04:41:00,
2013-04-23 00:46:00,33.4,16.4,30.46,North,4,2.2,4.0,49,0.00,,CLR,0.00,VWS V14.01,2013-04-23 04:46:00,
2013-04-23 00:52:00,33.1,16.5,30.46,NNW,343,2.7,3.1,50,0.00,,CLR,0.00,VWS V14.01,2013-04-23 04:52:00,
2013-04-23 00:57:00,32.7,16.1,30.46,NNW,346,2.7,3.1,50,0.00,,CLR,0.00,VWS V14.01,2013-04-23 04:57:00,
2013-04-23 01:02:00,32.4,16.3,30.46,North,353,3.1,3.6,51,0.00,,CLR,0.00,VWS V14.01,2013-04-23 05:02:00,
2013-04-23 01:07:00,32.0,15.9,30.46,North,353,0.0,0.0,51,0.00,,CLR,0.00,VWS V14.01,2013-04-23 05:07:00,
2013-04-23 01:12:00,31.6,15.6,30.46,North,353,0.0,0.0,51,0.00,,CLR,0.00,VWS V14.01,2013-04-23 05:12:00,
2013-04-23 01:17:00,31.6,15.6,30.46,NNW,342,0.0,0.0,51,0.00,,CLR,0.00,VWS V14.01,2013-04-23 05:17:00,
2013-04-23 01:22:00,31.6,15.6,30.46,NNW,346,0.0,0.0,51,0.00,,CLR,0.00,VWS V14.01,2013-04-23 05:22:00,
2013-04-23 01:27:00,31.1,15.5,30.46,NNW,346,0.0,0.0,52,0.00,,CLR,0.00,VWS V14.01,2013-04-23 05:27:00,
2013-04-23 01:32:00,30.9,15.4,30.46,North,357,0.0,0.0,52,0.00,,CLR,0.00,VWS V14.01,2013-04-23 05:32:00,
2013-04-23 01:37:00,30.7,15.2,30.46,North,357,0.0,0.0,52,0.00,,CLR,0.00,VWS V14.01,2013-04-23 05:37:00,
2013-04-23 01:42:00,30.6,15.0,30.46,North,353,0.0,0.0,52,0.00,,CLR,0.00,VWS V14.01,2013-04-23 05:42:00,
2013-04-23 01:47:00,30.2,15.6,30.46,NNW,346,0.0,0.0,54,0.00,,CLR,0.00,VWS V14.01,2013-04-23 05:47:00,
2013-04-23 01:52:00,30.2,15.6,30.46,NNW,345,4.0,4.0,54,0.00,,CLR,0.00,VWS V14.01,2013-04-23 05:52:00,
2013-04-23 01:57:00,30.2,16.0,30.46,NNW,333,4.9,4.9,55,0.00,,CLR,0.00,VWS V14.01,2013-04-23 05:57:00,
2013-04-23 02:02:00,30.6,16.3,30.46,North,6,4.0,4.0,55,0.00,,CLR,0.00,VWS V14.01,2013-04-23 06:02:00,
2013-04-23 02:07:00,31.1,16.8,30.46,NNW,331,3.6,3.6,55,0.00,,CLR,0.00,VWS V14.01,2013-04-23 06:07:00,
2013-04-23 02:12:00,32.0,17.7,30.46,NNW,345,2.7,2.7,55,0.00,,CLR,0.00,VWS V14.01,2013-04-23 06:12:00,
2013-04-23 02:17:00,32.4,17.6,30.46,NNE,18,0.0,0.0,54,0.00,,CLR,0.00,VWS V14.01,2013-04-23 06:17:00,
2013-04-23 02:22:00,32.7,17.9,30.46,NNE,15,0.0,0.0,54,0.00,,CLR,0.00,VWS V14.01,2013-04-23 06:22:00,
2013-04-23 02:27:00,32.5,17.3,30.46,NNE,15,0.0,0.0,53,0.00,,CLR,0.00,VWS V14.01,2013-04-23 06:27:00,
2013-04-23 02:32:00,31.8,16.6,30.46,NNE,15,0.0,0.0,53,0.00,,CLR,0.00,VWS V14.01,2013-04-23 06:32:00,
2013-04-23 02:37:00,31.1,16.0,30.46,NNW,341,0.0,0.0,53,0.00,,CLR,0.00,VWS V14.01,2013-04-23 06:37:00,
2013-04-23 02:42:00,31.1,16.0,30.46,NNW,341,0.0,0.0,53,0.00,,CLR,0.00,VWS V14.01,2013-04-23 06:42:00,
2013-04-23 02:47:00,30.2,15.6,30.46,NNW,341,0.0,0.0,54,0.00,,CLR,0.00,VWS V14.01,2013-04-23 06:47:00,
2013-04-23 02:52:00,29.8,15.7,30.43,NNW,341,0.0,0.0,55,0.00,,CLR,0.00,VWS V14.01,2013-04-23 06:52:00,
2013-04-23 02:57:00,29.5,15.3,30.43,North,353,0.0,0.0,55,0.00,,CLR,0.00,VWS V14.01,2013-04-23 06:57:00,
2013-04-23 03:02:00,29.3,15.1,30.43,North,353,0.0,0.0,55,0.00,,CLR,0.00,VWS V14.01,2013-04-23 07:02:00,
2013-04-23 03:07:00,29.1,15.0,30.43,North,353,0.0,0.0,55,0.00,,CLR,0.00,VWS V14.01,2013-04-23 07:07:00,
2013-04-23 03:12:00,28.8,15.1,30.43,North,353,0.0,0.0,56,0.00,,CLR,0.00,VWS V14.01,2013-04-23 07:12:00,
2013-04-23 03:17:00,28.6,14.9,30.43,North,353,0.0,0.0,56,0.00,,CLR,0.00,VWS V14.01,2013-04-23 07:17:00,
2013-04-23 03:22:00,28.6,15.3,30.43,North,353,0.0,0.0,57,0.00,,CLR,0.00,VWS V14.01,2013-04-23 07:22:00,
2013-04-23 03:27:00,28.4,15.5,30.43,North,353,0.0,0.0,58,0.00,,CLR,0.00,VWS V14.01,2013-04-23 07:27:00,
2013-04-23 03:32:00,28.2,15.4,30.43,North,353,0.0,0.0,58,0.00,,CLR,0.00,VWS V14.01,2013-04-23 07:32:00,
2013-04-23 03:37:00,28.2,15.4,30.43,North,353,0.0,0.0,58,0.00,,CLR,0.00,VWS V14.01,2013-04-23 07:37:00,
2013-04-23 03:42:00,28.2,15.4,30.43,North,353,0.0,0.0,58,0.00,,CLR,0.00,VWS V14.01,2013-04-23 07:42:00,
2013-04-23 03:47:00,28.4,16.3,30.43,North,353,0.0,0.0,60,0.00,,CLR,0.00,VWS V14.01,2013-04-23 07:47:00,
2013-04-23 03:53:00,28.6,16.9,30.43,North,353,0.0,0.0,61,0.00,,CLR,0.00,VWS V14.01,2013-04-23 07:53:00,
2013-04-23 03:58:00,28.6,16.9,30.43,North,357,0.0,0.0,61,0.00,,CLR,0.00,VWS V14.01,2013-04-23 07:58:00,
2013-04-23 04:03:00,28.8,17.0,30.43,NW,326,0.0,0.0,61,0.00,,CLR,0.00,VWS V14.01,2013-04-23 08:03:00,
2013-04-23 04:08:00,29.5,18.1,30.43,North,357,0.0,0.0,62,0.00,,CLR,0.00,VWS V14.01,2013-04-23 08:08:00,
2013-04-23 04:13:00,29.7,18.2,30.43,North,1,0.0,0.0,62,0.00,,CLR,0.00,VWS V14.01,2013-04-23 08:13:00,
2013-04-23 04:18:00,29.8,18.4,30.43,North,3,0.0,0.0,62,0.00,,CLR,0.00,VWS V14.01,2013-04-23 08:18:00,
2013-04-23 04:23:00,30.0,18.6,30.43,North,1,0.0,0.0,62,0.00,,CLR,0.00,VWS V14.01,2013-04-23 08:23:00,
2013-04-23 04:28:00,30.2,18.8,30.43,North,2,0.0,0.0,62,0.00,,CLR,0.00,VWS V14.01,2013-04-23 08:28:00,
2013-04-23 04:33:00,30.2,18.4,30.43,NW,321,0.0,0.0,61,0.00,,CLR,0.00,VWS V14.01,2013-04-23 08:33:00,
2013-04-23 04:38:00,30.0,18.2,30.43,NW,321,0.0,0.0,61,0.00,,CLR,0.00,VWS V14.01,2013-04-23 08:38:00,
2013-04-23 04:43:00,30.0,18.2,30.43,NW,321,0.0,0.0,61,0.00,,CLR,0.00,VWS V14.01,2013-04-23 08:43:00,
2013-04-23 04:48:00,29.5,17.3,30.43,NW,321,0.0,0.0,60,0.00,,CLR,0.00,VWS V14.01,2013-04-23 08:48:00,
2013-04-23 04:53:00,29.3,17.1,30.43,NW,321,0.0,0.0,60,0.00,,CLR,0.00,VWS V14.01,2013-04-23 08:53:00,
2013-04-23 04:58:00,28.8,16.6,30.43,NW,321,0.0,0.0,60,0.00,,CLR,0.00,VWS V14.01,2013-04-23 08:58:00,
2013-04-23 05:03:00,28.8,16.6,30.43,NW,321,0.0,0.0,60,0.00,,CLR,0.00,VWS V14.01,2013-04-23 09:03:00,
2013-04-23 05:08:00,28.6,16.5,30.43,NW,321,0.0,0.0,60,0.00,,CLR,0.00,VWS V14.01,2013-04-23 09:08:00,
2013-04-23 05:13:00,28.6,16.5,30.43,NW,321,0.0,0.0,60,0.00,,CLR,0.00,VWS V14.01,2013-04-23 09:13:00,
2013-04-23 05:18:00,28.4,16.7,30.43,NW,321,0.0,0.0,61,0.00,,CLR,0.00,VWS V14.01,2013-04-23 09:18:00,
2013-04-23 05:23:00,28.2,16.5,30.40,NW,321,0.0,0.0,61,0.00,,CLR,0.00,VWS V14.01,2013-04-23 09:23:00,
2013-04-23 05:28:00,28.0,16.7,30.40,NW,321,0.0,0.0,62,0.00,,CLR,0.00,VWS V14.01,2013-04-23 09:28:00,
2013-04-23 05:33:00,27.9,16.5,30.40,NW,321,0.0,0.0,62,0.00,,CLR,0.00,VWS V14.01,2013-04-23 09:33:00,
2013-04-23 05:38:00,27.9,16.5,30.40,NNW,332,0.0,0.0,62,0.00,,CLR,0.00,VWS V14.01,2013-04-23 09:38:00,
2013-04-23 05:43:00,27.7,16.7,30.40,NNW,332,0.0,0.0,63,0.00,,CLR,0.00,VWS V14.01,2013-04-23 09:43:00,
2013-04-23 05:48:00,27.5,16.6,30.40,NNW,332,0.0,0.0,63,0.00,,CLR,0.00,VWS V14.01,2013-04-23 09:48:00,
2013-04-23 05:53:00,27.3,16.8,30.40,NNW,332,0.0,0.0,64,0.00,,CLR,0.00,VWS V14.01,2013-04-23 09:53:00,
2013-04-23 05:58:00,27.1,16.6,30.40,NNW,332,0.0,0.0,64,0.00,,CLR,0.00,VWS V14.01,2013-04-23 09:58:00,
2013-04-23 06:03:00,27.1,17.0,30.40,NNW,332,0.0,0.0,65,0.00,,CLR,0.00,VWS V14.01,2013-04-23 10:03:00,
2013-04-23 06:08:00,27.0,16.8,30.40,NNW,332,0.0,0.0,65,0.00,,CLR,0.00,VWS V14.01,2013-04-23 10:08:00,
2013-04-23 06:13:00,27.0,16.8,30.40,NNW,332,0.0,0.0,65,0.00,,CLR,0.00,VWS V14.01,2013-04-23 10:13:00,
2013-04-23 06:19:00,27.0,16.8,30.40,NNW,332,0.0,0.0,65,0.00,,CLR,0.00,VWS V14.01,2013-04-23 10:19:00,
2013-04-23 06:24:00,27.0,17.1,30.40,NNW,332,0.0,0.0,66,0.00,,CLR,0.00,VWS V14.01,2013-04-23 10:24:00,
2013-04-23 06:29:00,27.0,17.1,30.40,NNW,332,0.0,0.0,66,0.00,,CLR,0.00,VWS V14.01,2013-04-23 10:29:00,
2013-04-23 06:34:00,27.0,17.1,30.40,NNW,332,0.0,0.0,66,0.00,,CLR,0.00,VWS V14.01,2013-04-23 10:34:00,
2013-04-23 06:39:00,27.0,17.1,30.40,NNW,332,0.0,0.0,66,0.00,,CLR,0.00,VWS V14.01,2013-04-23 10:39:00,
2013-04-23 06:44:00,27.1,17.6,30.40,NNW,332,0.0,0.0,67,0.00,,CLR,0.00,VWS V14.01,2013-04-23 10:44:00,
2013-04-23 06:49:00,27.1,17.6,30.40,NNW,332,0.0,0.0,67,0.00,,CLR,0.00,VWS V14.01,2013-04-23 10:49:00,
2013-04-23 06:54:00,27.3,17.8,30.40,NNW,332,0.0,0.0,67,0.00,,CLR,0.00,VWS V14.01,2013-04-23 10:54:00,
2013-04-23 06:59:00,27.5,18.3,30.40,NNW,332,0.0,0.0,68,0.00,,CLR,0.00,VWS V14.01,2013-04-23 10:59:00,
2013-04-23 07:04:00,27.7,18.9,30.40,NNW,332,0.0,0.0,69,0.00,,CLR,0.00,VWS V14.01,2013-04-23 11:04:00,
2013-04-23 07:09:00,27.9,19.4,30.40,NNW,332,0.0,0.0,70,0.00,,CLR,0.00,VWS V14.01,2013-04-23 11:09:00,
2013-04-23 07:14:00,28.0,19.5,30.40,NNW,332,0.0,0.0,70,0.00,,CLR,0.00,VWS V14.01,2013-04-23 11:14:00,
2013-04-23 07:19:00,28.0,19.5,30.40,NNW,332,0.0,0.0,70,0.00,,CLR,0.00,VWS V14.01,2013-04-23 11:19:00,
2013-04-23 07:24:00,28.8,20.6,30.40,NNW,332,0.0,0.0,71,0.00,,CLR,0.00,VWS V14.01,2013-04-23 11:24:00,
2013-04-23 07:29:00,28.9,20.7,30.40,NNE,31,0.0,0.0,71,0.00,,CLR,0.00,VWS V14.01,2013-04-23 11:29:00,
2013-04-23 07:34:00,31.1,23.1,30.40,NNE,30,0.0,0.0,72,0.00,,CLR,0.00,VWS V14.01,2013-04-23 11:34:00,
2013-04-23 07:39:00,31.1,23.1,30.40,NE,35,0.0,0.0,72,0.00,,CLR,0.00,VWS V14.01,2013-04-23 11:39:00,
2013-04-23 07:44:00,34.0,25.2,30.40,NNE,20,0.0,0.0,70,0.00,,CLR,0.00,VWS V14.01,2013-04-23 11:44:00,
2013-04-23 07:49:00,34.5,25.1,30.40,NE,36,0.0,0.0,68,0.00,,CLR,0.00,VWS V14.01,2013-04-23 11:49:00,
2013-04-23 07:54:00,34.7,24.9,30.40,NNW,343,0.0,0.0,67,0.00,,CLR,0.00,VWS V14.01,2013-04-23 11:54:00,
2013-04-23 07:59:00,36.1,24.0,30.40,North,6,3.6,6.3,61,0.00,,CLR,0.00,VWS V14.01,2013-04-23 11:59:00,
2013-04-23 08:04:00,36.1,24.0,30.40,North,8,2.7,2.7,61,0.00,,CLR,0.00,VWS V14.01,2013-04-23 12:04:00,
2013-04-23 08:09:00,36.9,21.8,30.40,NNE,14,6.3,6.3,54,0.00,,CLR,0.00,VWS V14.01,2013-04-23 12:09:00,
2013-04-23 08:14:00,36.9,20.9,30.40,NNW,344,4.9,4.9,52,0.00,,CLR,0.00,VWS V14.01,2013-04-23 12:14:00,
2013-04-23 08:19:00,37.0,21.5,30.40,NE,36,0.0,0.0,53,0.00,,CLR,0.00,VWS V14.01,2013-04-23 12:19:00,
2013-04-23 08:24:00,37.6,22.0,30.40,NNW,331,4.9,4.9,53,0.00,,CLR,0.00,VWS V14.01,2013-04-23 12:24:00,
2013-04-23 08:29:00,37.9,21.9,30.40,North,357,3.1,3.1,52,0.00,,CLR,0.00,VWS V14.01,2013-04-23 12:29:00,
2013-04-23 08:34:00,38.1,21.6,30.37,NNW,327,2.7,3.1,51,0.00,,CLR,0.00,VWS V14.01,2013-04-23 12:34:00,
2013-04-23 08:40:00,38.7,22.1,30.37,North,0,3.1,3.1,51,0.00,,CLR,0.00,VWS V14.01,2013-04-23 12:40:00,
2013-04-23 08:45:00,38.7,21.6,30.37,NNE,13,3.6,3.6,50,0.00,,CLR,0.00,VWS V14.01,2013-04-23 12:45:00,
2013-04-23 08:50:00,38.7,20.7,30.37,NNW,339,0.0,0.0,48,0.00,,CLR,0.00,VWS V14.01,2013-04-23 12:50:00,
2013-04-23 08:55:00,39.0,21.5,30.37,NNW,339,0.0,0.0,49,0.00,,CLR,0.00,VWS V14.01,2013-04-23 12:55:00,
2013-04-23 09:00:00,39.2,21.7,30.37,SSE,159,0.0,0.0,49,0.00,,CLR,0.00,VWS V14.01,2013-04-23 13:00:00,
2013-04-23 09:05:00,39.4,21.8,30.37,SSW,193,0.0,0.0,49,0.00,,CLR,0.00,VWS V14.01,2013-04-23 13:05:00,
2013-04-23 09:10:00,39.6,21.5,30.37,North,353,0.0,0.0,48,0.00,,CLR,0.00,VWS V14.01,2013-04-23 13:10:00,
2013-04-23 09:15:00,39.9,21.3,30.37,North,357,0.0,0.0,47,0.00,,CLR,0.00,VWS V14.01,2013-04-23 13:15:00,
2013-04-23 09:20:00,40.3,20.1,30.37,NNE,12,0.0,0.0,44,0.00,,CLR,0.00,VWS V14.01,2013-04-23 13:20:00,
2013-04-23 09:25:00,40.3,20.1,30.37,South,170,0.0,0.0,44,0.00,,CLR,0.00,VWS V14.01,2013-04-23 13:25:00,
2013-04-23 09:30:00,40.3,20.1,30.37,SSE,164,0.0,0.0,44,0.00,,CLR,0.00,VWS V14.01,2013-04-23 13:30:00,
2013-04-23 09:35:00,40.3,20.1,30.37,SSE,164,0.0,0.0,44,0.00,,CLR,0.00,VWS V14.01,2013-04-23 13:35:00,
2013-04-23 09:40:00,40.6,20.5,30.37,SE,135,2.7,2.7,44,0.00,,CLR,0.00,VWS V14.01,2013-04-23 13:40:00,
2013-04-23 09:45:00,40.6,20.5,30.37,SSE,168,2.7,2.7,44,0.00,,CLR,0.00,VWS V14.01,2013-04-23 13:45:00,
2013-04-23 09:50:00,41.0,19.7,30.37,South,183,4.0,4.0,42,0.00,,CLR,0.00,VWS V14.01,2013-04-23 13:50:00,
2013-04-23 09:55:00,41.0,19.7,30.37,South,190,3.6,3.6,42,0.00,,CLR,0.00,VWS V14.01,2013-04-23 13:55:00,
2013-04-23 10:00:00,41.7,19.8,30.37,SSE,151,4.0,4.0,41,0.00,,CLR,0.00,VWS V14.01,2013-04-23 14:00:00,
2013-04-23 10:05:00,42.3,19.7,30.34,SSE,151,4.0,4.0,40,0.00,,CLR,0.00,VWS V14.01,2013-04-23 14:05:00,
2013-04-23 10:10:00,42.3,19.7,30.34,SSE,157,4.0,4.0,40,0.00,,CLR,0.00,VWS V14.01,2013-04-23 14:10:00,
2013-04-23 10:15:00,43.3,19.5,30.34,SSE,168,3.1,3.1,38,0.00,,CLR,0.00,VWS V14.01,2013-04-23 14:15:00,
2013-04-23 10:20:00,43.3,19.5,30.34,SSE,152,3.6,3.6,38,0.00,,CLR,0.00,VWS V14.01,2013-04-23 14:20:00,
2013-04-23 10:25:00,43.3,19.5,30.34,NE,34,4.0,4.0,38,0.00,,CLR,0.00,VWS V14.01,2013-04-23 14:25:00,
2013-04-23 10:30:00,44.8,18.8,30.34,NE,34,4.0,4.0,35,0.00,,CLR,0.00,VWS V14.01,2013-04-23 14:30:00,
2013-04-23 10:35:00,45.9,20.4,30.34,SSE,153,4.9,4.9,36,0.00,,CLR,0.00,VWS V14.01,2013-04-23 14:35:00,
2013-04-23 10:40:00,47.7,21.4,30.34,SSE,156,3.6,3.6,35,0.00,,CLR,0.00,VWS V14.01,2013-04-23 14:40:00,
2013-04-23 10:45:00,48.0,21.0,30.34,South,173,4.0,4.0,34,0.00,,CLR,0.00,VWS V14.01,2013-04-23 14:45:00,
2013-04-23 10:50:00,48.0,21.0,30.34,SSE,158,5.4,5.8,34,0.00,,CLR,0.00,VWS V14.01,2013-04-23 14:50:00,
2013-04-23 10:55:00,49.3,20.7,30.34,ESE,105,0.0,0.0,32,0.00,,CLR,0.00,VWS V14.01,2013-04-23 14:55:00,
2013-04-23 11:01:00,49.3,20.7,30.34,South,186,7.6,7.6,32,0.00,,CLR,0.00,VWS V14.01,2013-04-23 15:01:00,
2013-04-23 11:06:00,49.3,20.7,30.34,NNE,30,5.4,8.1,32,0.00,,CLR,0.00,VWS V14.01,2013-04-23 15:06:00,
2013-04-23 11:11:00,49.3,20.7,30.34,NE,52,3.6,3.6,32,0.00,,CLR,0.00,VWS V14.01,2013-04-23 15:11:00,
2013-04-23 11:16:00,49.3,20.7,30.31,NNE,24,4.9,4.9,32,0.00,,CLR,0.00,VWS V14.01,2013-04-23 15:16:00,
2013-04-23 11:21:00,49.3,20.7,30.31,East,91,0.0,0.0,32,0.00,,CLR,0.00,VWS V14.01,2013-04-23 15:21:00,
2013-04-23 11:26:00,49.3,20.7,30.31,SSE,164,4.5,4.5,32,0.00,,CLR,0.00,VWS V14.01,2013-04-23 15:26:00,
2013-04-23 11:31:00,51.1,20.8,30.31,SE,137,5.4,6.7,30,0.00,,CLR,0.00,VWS V14.01,2013-04-23 15:31:00,
2013-04-23 11:36:00,51.8,20.6,30.31,SSE,154,3.6,3.6,29,0.00,,CLR,0.00,VWS V14.01,2013-04-23 15:36:00,
2013-04-23 11:41:00,51.8,20.6,30.31,South,175,4.9,5.8,29,0.00,,CLR,0.00,VWS V14.01,2013-04-23 15:41:00,
2013-04-23 11:46:00,51.8,20.6,30.31,SE,145,5.4,5.4,29,0.00,,CLR,0.00,VWS V14.01,2013-04-23 15:46:00,
2013-04-23 11:51:00,51.8,20.6,30.31,SSE,164,8.1,8.1,29,0.00,,CLR,0.00,VWS V14.01,2013-04-23 15:51:00,
2013-04-23 11:56:00,52.2,20.1,30.31,SSE,153,3.6,6.3,28,0.00,,CLR,0.00,VWS V14.01,2013-04-23 15:56:00,
2013-04-23 12:01:00,52.0,19.9,30.31,SE,143,8.3,8.3,28,0.00,,CLR,0.00,VWS V14.01,2013-04-23 16:01:00,
2013-04-23 12:06:00,52.0,19.9,30.31,SSE,160,4.0,4.0,28,0.00,,CLR,0.00,VWS V14.01,2013-04-23 16:06:00,
2013-04-23 12:11:00,52.2,20.1,30.31,SSE,147,8.3,8.3,28,0.00,,CLR,0.00,VWS V14.01,2013-04-23 16:11:00,
2013-04-23 12:16:00,52.2,20.1,30.31,SSE,154,8.1,8.1,28,0.00,,CLR,0.00,VWS V14.01,2013-04-23 16:16:00,
2013-04-23 12:21:00,52.2,20.1,30.31,SE,136,3.6,3.6,28,0.00,,CLR,0.00,VWS V14.01,2013-04-23 16:21:00,
2013-04-23 12:26:00,53.1,20.8,30.31,SE,141,5.8,5.8,28,0.00,,CLR,0.00,VWS V14.01,2013-04-23 16:26:00,
2013-04-23 12:31:00,53.2,21.0,30.31,ESE,123,3.6,3.6,28,0.00,,CLR,0.00,VWS V14.01,2013-04-23 16:31:00,
2013-04-23 12:36:00,53.2,21.0,30.28,ENE,57,2.7,2.7,28,0.00,,CLR,0.00,VWS V14.01,2013-04-23 16:36:00,
2013-04-23 12:41:00,53.6,20.5,30.28,NNE,22,7.6,7.6,27,0.00,,CLR,0.00,VWS V14.01,2013-04-23 16:41:00,
2013-04-23 12:46:00,53.4,20.3,30.28,ENE,74,2.7,2.7,27,0.00,,CLR,0.00,VWS V14.01,2013-04-23 16:46:00,
2013-04-23 12:51:00,53.1,20.0,30.28,SSE,163,3.1,3.1,27,0.00,,CLR,0.00,VWS V14.01,2013-04-23 16:51:00,
2013-04-23 12:56:00,53.1,20.0,30.28,SSE,161,3.1,3.1,27,0.00,,CLR,0.00,VWS V14.01,2013-04-23 16:56:00,
2013-04-23 13:01:00,53.1,20.0,30.28,SSE,153,4.9,4.9,27,0.00,,CLR,0.00,VWS V14.01,2013-04-23 17:01:00,
2013-04-23 13:06:00,54.0,20.8,30.28,SE,124,3.6,5.8,27,0.00,,CLR,0.00,VWS V14.01,2013-04-23 17:06:00,
2013-04-23 13:11:00,54.0,20.8,30.28,North,353,3.1,3.1,27,0.00,,CLR,0.00,VWS V14.01,2013-04-23 17:11:00,
2013-04-23 13:16:00,54.1,20.9,30.28,SSE,162,3.6,3.6,27,0.00,,CLR,0.00,VWS V14.01,2013-04-23 17:16:00,
2013-04-23 13:21:00,54.1,20.9,30.28,South,173,2.7,2.7,27,0.00,,CLR,0.00,VWS V14.01,2013-04-23 17:21:00,
2013-04-23 13:26:00,54.1,20.9,30.28,SE,124,2.7,2.7,27,0.00,,CLR,0.00,VWS V14.01,2013-04-23 17:26:00,
2013-04-23 13:31:00,54.1,20.9,30.28,ESE,116,3.1,3.1,27,0.00,,CLR,0.00,VWS V14.01,2013-04-23 17:31:00,
2013-04-23 13:36:00,55.4,22.0,30.28,SSE,167,6.3,6.3,27,0.00,,CLR,0.00,VWS V14.01,2013-04-23 17:36:00,
2013-04-23 13:41:00,55.6,22.1,30.25,SE,146,8.3,8.3,27,0.00,,CLR,0.00,VWS V14.01,2013-04-23 17:41:00,
2013-04-23 13:46:00,55.6,22.1,30.25,SSW,197,7.6,7.6,27,0.00,,CLR,0.00,VWS V14.01,2013-04-23 17:46:00,
2013-04-23 13:51:00,55.8,22.3,30.25,NW,319,2.7,2.7,27,0.00,,CLR,0.00,VWS V14.01,2013-04-23 17:51:00,
2013-04-23 13:57:00,56.3,21.9,30.25,SE,125,2.7,2.7,26,0.00,,CLR,0.00,VWS V14.01,2013-04-23 17:57:00,
2013-04-23 14:02:00,56.3,21.9,30.25,South,172,5.8,5.8,26,0.00,,CLR,0.00,VWS V14.01,2013-04-23 18:02:00,
2013-04-23 14:07:00,56.3,21.9,30.25,SSE,148,7.6,7.6,26,0.00,,CLR,0.00,VWS V14.01,2013-04-23 18:07:00,
2013-04-23 14:12:00,55.9,21.6,30.25,South,177,6.3,6.3,26,0.00,,CLR,0.00,VWS V14.01,2013-04-23 18:12:00,
2013-04-23 14:17:00,55.9,21.6,30.25,SE,145,7.2,7.2,26,0.00,,CLR,0.00,VWS V14.01,2013-04-23 18:17:00,
2013-04-23 14:22:00,56.3,21.9,30.25,SSE,165,7.6,7.6,26,0.00,,CLR,0.00,VWS V14.01,2013-04-23 18:22:00,
2013-04-23 14:27:00,56.3,21.9,30.25,SSE,155,4.5,7.6,26,0.00,,CLR,0.00,VWS V14.01,2013-04-23 18:27:00,
2013-04-23 14:32:00,56.3,21.9,30.25,SE,137,5.8,5.8,26,0.00,,CLR,0.00,VWS V14.01,2013-04-23 18:32:00,
2013-04-23 14:37:00,56.3,21.9,30.25,SE,125,3.6,3.6,26,0.00,,CLR,0.00,VWS V14.01,2013-04-23 18:37:00,
2013-04-23 14:42:00,56.8,22.3,30.25,South,172,6.7,6.7,26,0.00,,CLR,0.00,VWS V14.01,2013-04-23 18:42:00,
2013-04-23 14:47:00,57.0,23.4,30.22,SSE,155,7.6,7.6,27,0.00,,CLR,0.00,VWS V14.01,2013-04-23 18:47:00,
2013-04-23 14:52:00,57.0,23.4,30.22,SSE,158,8.7,8.7,27,0.00,,CLR,0.00,VWS V14.01,2013-04-23 18:52:00,
2013-04-23 14:57:00,56.7,23.1,30.22,ESE,105,2.2,2.2,27,0.00,,CLR,0.00,VWS V14.01,2013-04-23 18:57:00,
2013-04-23 15:02:00,56.7,23.1,30.22,ESE,102,2.2,2.2,27,0.00,,CLR,0.00,VWS V14.01,2013-04-23 19:02:00,
2013-04-23 15:07:00,56.7,24.0,30.22,SSE,156,5.8,5.8,28,0.00,,CLR,0.00,VWS V14.01,2013-04-23 19:07:00,
2013-04-23 15:12:00,57.4,24.6,30.22,SSE,147,3.6,3.6,28,0.00,,CLR,0.00,VWS V14.01,2013-04-23 19:12:00,
2013-04-23 15:17:00,57.4,24.6,30.22,South,177,3.1,3.1,28,0.00,,CLR,0.00,VWS V14.01,2013-04-23 19:17:00,
2013-04-23 15:22:00,57.4,24.6,30.22,SSE,150,7.6,7.6,28,0.00,,CLR,0.00,VWS V14.01,2013-04-23 19:22:00,
2013-04-23 15:27:00,57.4,24.6,30.22,SSE,154,5.8,5.8,28,0.00,,CLR,0.00,VWS V14.01,2013-04-23 19:27:00,
2013-04-23 15:32:00,57.6,25.6,30.22,SE,144,8.3,8.3,29,0.00,,CLR,0.00,VWS V14.01,2013-04-23 19:32:00,
2013-04-23 15:37:00,57.6,25.6,30.22,South,170,2.7,2.7,29,0.00,,CLR,0.00,VWS V14.01,2013-04-23 19:37:00,
2013-04-23 15:42:00,56.8,25.8,30.22,East,81,4.0,4.0,30,0.00,,CLR,0.00,VWS V14.01,2013-04-23 19:42:00,
2013-04-23 15:47:00,56.8,25.8,30.22,SE,141,4.0,4.0,30,0.00,,CLR,0.00,VWS V14.01,2013-04-23 19:47:00,
2013-04-23 15:52:00,56.3,26.8,30.22,SSW,192,3.6,3.6,32,0.00,,CLR,0.00,VWS V14.01,2013-04-23 19:52:00,
2013-04-23 15:57:00,55.9,28.7,30.22,SE,137,4.0,4.0,35,0.00,,CLR,0.00,VWS V14.01,2013-04-23 19:57:00,
2013-04-23 16:02:00,55.9,28.7,30.22,SSE,165,6.7,8.7,35,0.00,,CLR,0.00,VWS V14.01,2013-04-23 20:02:00,
2013-04-23 16:07:00,55.9,28.7,30.22,SSE,157,9.6,9.6,35,0.00,,CLR,0.00,VWS V14.01,2013-04-23 20:07:00,
2013-04-23 16:12:00,55.9,28.7,30.22,South,183,8.3,13.2,35,0.00,,CLR,0.00,VWS V14.01,2013-04-23 20:12:00,
2013-04-23 16:17:00,54.3,28.0,30.22,SE,137,11.0,11.0,36,0.00,,CLR,0.00,VWS V14.01,2013-04-23 20:17:00,
2013-04-23 16:22:00,54.3,28.0,30.22,ESE,121,8.3,8.3,36,0.00,,CLR,0.00,VWS V14.01,2013-04-23 20:22:00,
2013-04-23 16:27:00,53.8,28.1,30.22,SSE,148,6.3,6.3,37,0.00,,CLR,0.00,VWS V14.01,2013-04-23 20:27:00,
2013-04-23 16:32:00,54.0,28.3,30.22,SSE,162,8.7,8.7,37,0.00,,CLR,0.00,VWS V14.01,2013-04-23 20:32:00,
2013-04-23 16:37:00,54.1,28.5,30.22,SSE,163,5.8,5.8,37,0.00,,CLR,0.00,VWS V14.01,2013-04-23 20:37:00,
2013-04-23 16:42:00,54.1,28.5,30.22,SSE,163,5.8,5.8,37,0.00,,CLR,0.00,VWS V14.01,2013-04-23 20:42:00,
2013-04-23 16:47:00,54.1,28.5,30.22,SSE,151,6.3,6.3,37,0.00,,CLR,0.00,VWS V14.01,2013-04-23 20:47:00,
2013-04-23 16:52:00,53.8,28.1,30.22,SSE,153,6.3,6.3,37,0.00,,CLR,0.00,VWS V14.01,2013-04-23 20:52:00,
2013-04-23 16:57:00,53.8,28.1,30.22,SE,141,5.4,5.4,37,0.00,,CLR,0.00,VWS V14.01,2013-04-23 20:57:00,
2013-04-23 17:03:00,53.6,28.0,30.22,South,177,5.8,8.3,37,0.00,,CLR,0.00,VWS V14.01,2013-04-23 21:03:00,
2013-04-23 17:08:00,53.4,28.5,30.19,ESE,123,5.4,5.4,38,0.00,,CLR,0.00,VWS V14.01,2013-04-23 21:08:00,
2013-04-23 17:13:00,53.4,28.5,30.19,South,171,8.1,8.1,38,0.00,,CLR,0.00,VWS V14.01,2013-04-23 21:13:00,
2013-04-23 17:18:00,53.2,28.3,30.19,SSW,206,5.4,5.4,38,0.00,,CLR,0.00,VWS V14.01,2013-04-23 21:18:00,
2013-04-23 17:23:00,53.2,28.3,30.19,SSW,193,8.7,8.7,38,0.00,,CLR,0.00,VWS V14.01,2013-04-23 21:23:00,
2013-04-23 17:28:00,53.1,28.1,30.19,SSW,209,10.1,10.1,38,0.00,,CLR,0.00,VWS V14.01,2013-04-23 21:28:00,
2013-04-23 17:33:00,53.1,28.1,30.19,SSE,152,6.3,6.3,38,0.00,,CLR,0.00,VWS V14.01,2013-04-23 21:33:00,
2013-04-23 17:38:00,53.1,28.8,30.19,South,189,8.3,8.3,39,0.00,,CLR,0.00,VWS V14.01,2013-04-23 21:38:00,
2013-04-23 17:43:00,53.1,28.8,30.19,South,189,8.3,8.3,39,0.00,,CLR,0.00,VWS V14.01,2013-04-23 21:43:00,
2013-04-23 17:48:00,53.1,28.8,30.19,SSE,157,5.8,5.8,39,0.00,,CLR,0.00,VWS V14.01,2013-04-23 21:48:00,
2013-04-23 17:53:00,52.9,28.6,30.19,SSE,160,5.8,5.8,39,0.00,,CLR,0.00,VWS V14.01,2013-04-23 21:53:00,
2013-04-23 17:58:00,52.9,28.6,30.19,SE,139,5.4,5.4,39,0.00,,CLR,0.00,VWS V14.01,2013-04-23 21:58:00,
2013-04-23 18:03:00,53.1,29.4,30.19,SE,133,8.3,8.3,40,0.00,,CLR,0.00,VWS V14.01,2013-04-23 22:03:00,
2013-04-23 18:08:00,53.1,28.8,30.19,ESE,102,0.0,0.0,39,0.00,,CLR,0.00,VWS V14.01,2013-04-23 22:08:00,
2013-04-23 18:13:00,52.5,28.9,30.19,South,169,2.7,3.1,40,0.00,,CLR,0.00,VWS V14.01,2013-04-23 22:13:00,
2013-04-23 18:18:00,52.3,28.8,30.19,SSE,162,5.8,5.8,40,0.00,,CLR,0.00,VWS V14.01,2013-04-23 22:18:00,
2013-04-23 18:23:00,52.2,28.6,30.19,ESE,109,0.0,0.0,40,0.00,,CLR,0.00,VWS V14.01,2013-04-23 22:23:00,
2013-04-23 18:28:00,51.8,28.9,30.19,SSW,199,5.8,5.8,41,0.00,,CLR,0.00,VWS V14.01,2013-04-23 22:28:00,
2013-04-23 18:33:00,51.8,28.9,30.19,SE,126,2.7,4.0,41,0.00,,CLR,0.00,VWS V14.01,2013-04-23 22:33:00,
2013-04-23 18:38:00,51.3,30.1,30.19,SE,134,8.1,8.1,44,0.00,,CLR,0.00,VWS V14.01,2013-04-23 22:38:00,
2013-04-23 18:43:00,51.1,30.0,30.19,SE,128,2.7,2.7,44,0.00,,CLR,0.00,VWS V14.01,2013-04-23 22:43:00,
2013-04-23 18:48:00,50.9,30.3,30.19,SSE,155,3.6,3.6,45,0.00,,CLR,0.00,VWS V14.01,2013-04-23 22:48:00,
2013-04-23 18:53:00,50.7,30.2,30.19,SE,124,3.6,3.6,45,0.00,,CLR,0.00,VWS V14.01,2013-04-23 22:53:00,
2013-04-23 18:58:00,50.7,30.7,30.19,SE,142,6.3,6.3,46,0.00,,CLR,0.00,VWS V14.01,2013-04-23 22:58:00,
2013-04-23 19:03:00,50.7,30.7,30.19,SSW,192,6.3,6.3,46,0.00,,CLR,0.00,VWS V14.01,2013-04-23 23:03:00,
2013-04-23 19:08:00,50.5,30.5,30.19,SSE,166,3.1,5.8,46,0.00,,CLR,0.00,VWS V14.01,2013-04-23 23:08:00,
2013-04-23 19:13:00,50.4,30.4,30.19,SE,145,2.7,2.7,46,0.00,,CLR,0.00,VWS V14.01,2013-04-23 23:13:00,
2013-04-23 19:18:00,50.0,30.0,30.19,East,82,3.1,3.1,46,0.00,,CLR,0.00,VWS V14.01,2013-04-23 23:18:00,
2013-04-23 19:23:00,49.6,30.2,30.19,ESE,113,0.0,0.0,47,0.00,,CLR,0.00,VWS V14.01,2013-04-23 23:23:00,
2013-04-23 19:28:00,49.3,29.9,30.19,SE,143,0.0,0.0,47,0.00,,CLR,0.00,VWS V14.01,2013-04-23 23:28:00,
2013-04-23 19:33:00,49.1,29.8,30.19,SSE,158,5.4,5.4,47,0.00,,CLR,0.00,VWS V14.01,2013-04-23 23:33:00,
2013-04-23 19:38:00,48.7,29.4,30.19,SE,125,0.0,0.0,47,0.00,,CLR,0.00,VWS V14.01,2013-04-23 23:38:00,
2013-04-23 19:43:00,48.2,28.9,30.19,East,98,0.0,0.0,47,0.00,,CLR,0.00,VWS V14.01,2013-04-23 23:43:00,
2013-04-23 19:48:00,47.8,29.6,30.19,SSE,156,2.2,2.2,49,0.00,,CLR,0.00,VWS V14.01,2013-04-23 23:48:00,
2013-04-23 19:53:00,47.7,29.5,30.16,ESE,105,2.2,5.4,49,0.00,,CLR,0.00,VWS V14.01,2013-04-23 23:53:00,
2013-04-23 19:58:00,47.5,29.8,30.16,SSW,207,4.0,4.0,50,0.00,,CLR,0.00,VWS V14.01,2013-04-23 23:58:00,
2013-04-23 20:04:00,47.3,29.6,30.16,ENE,60,0.0,0.0,50,0.00,,CLR,0.00,VWS V14.01,2013-04-24 00:04:00,
2013-04-23 20:09:00,47.1,29.5,30.16,NW,326,0.0,3.6,50,0.00,,CLR,0.00,VWS V14.01,2013-04-24 00:09:00,
2013-04-23 20:14:00,46.8,29.6,30.16,ESE,117,0.0,0.0,51,0.00,,CLR,0.00,VWS V14.01,2013-04-24 00:14:00,
2013-04-23 20:19:00,46.4,29.3,30.16,ESE,117,0.0,0.0,51,0.00,,CLR,0.00,VWS V14.01,2013-04-24 00:19:00,
2013-04-23 20:24:00,45.9,28.8,30.16,ESE,117,0.0,0.0,51,0.00,,CLR,0.00,VWS V14.01,2013-04-24 00:24:00,
2013-04-23 20:29:00,45.1,28.6,30.16,ESE,117,0.0,0.0,52,0.00,,CLR,0.00,VWS V14.01,2013-04-24 00:29:00,
2013-04-23 20:34:00,44.6,29.5,30.16,North,11,0.0,0.0,55,0.00,,CLR,0.00,VWS V14.01,2013-04-24 00:34:00,
2013-04-23 20:39:00,44.2,30.0,30.16,NNW,336,0.0,0.0,57,0.00,,CLR,0.00,VWS V14.01,2013-04-24 00:39:00,
2013-04-23 20:44:00,43.9,29.6,30.16,NNW,336,0.0,0.0,57,0.00,,CLR,0.00,VWS V14.01,2013-04-24 00:44:00,
2013-04-23 20:49:00,43.3,29.1,30.16,NNW,336,0.0,0.0,57,0.00,,CLR,0.00,VWS V14.01,2013-04-24 00:49:00,
2013-04-23 20:54:00,43.0,29.2,30.16,NNW,336,0.0,0.0,58,0.00,,CLR,0.00,VWS V14.01,2013-04-24 00:54:00,
2013-04-23 20:59:00,42.4,28.7,30.16,NNW,337,0.0,0.0,58,0.00,,CLR,0.00,VWS V14.01,2013-04-24 00:59:00,
2013-04-23 21:04:00,42.1,29.6,30.16,North,353,0.0,0.0,61,0.00,,CLR,0.00,VWS V14.01,2013-04-24 01:04:00,
2013-04-23 21:09:00,41.5,29.1,30.16,North,349,0.0,0.0,61,0.00,,CLR,0.00,VWS V14.01,2013-04-24 01:09:00,
2013-04-23 21:14:00,41.0,28.2,30.16,North,4,0.0,0.0,60,0.00,,CLR,0.00,VWS V14.01,2013-04-24 01:14:00,
2013-04-23 21:19:00,40.5,29.6,30.16,NW,308,0.0,0.0,65,0.00,,CLR,0.00,VWS V14.01,2013-04-24 01:19:00,
2013-04-23 21:24:00,40.3,29.5,30.16,NNW,336,0.0,0.0,65,0.00,,CLR,0.00,VWS V14.01,2013-04-24 01:24:00,
2013-04-23 21:29:00,40.1,29.7,30.16,North,357,0.0,0.0,66,0.00,,CLR,0.00,VWS V14.01,2013-04-24 01:29:00,
2013-04-23 21:34:00,40.1,30.4,30.16,NNE,15,0.0,0.0,68,0.00,,CLR,0.00,VWS V14.01,2013-04-24 01:34:00,
2013-04-23 21:39:00,39.9,30.6,30.16,North,2,0.0,0.0,69,0.00,,CLR,0.00,VWS V14.01,2013-04-24 01:39:00,
2013-04-23 21:44:00,39.4,29.7,30.16,North,357,0.0,0.0,68,0.00,,CLR,0.00,VWS V14.01,2013-04-24 01:44:00,
2013-04-23 21:49:00,39.0,29.7,30.16,North,5,0.0,0.0,69,0.00,,CLR,0.00,VWS V14.01,2013-04-24 01:49:00,
2013-04-23 21:54:00,39.0,29.7,30.16,NNW,341,0.0,0.0,69,0.00,,CLR,0.00,VWS V14.01,2013-04-24 01:54:00,
2013-04-23 21:59:00,38.7,30.1,30.16,North,349,0.0,0.0,71,0.00,,CLR,0.00,VWS V14.01,2013-04-24 01:59:00,
2013-04-23 22:04:00,38.7,30.1,30.16,North,10,0.0,0.0,71,0.00,,CLR,0.00,VWS V14.01,2013-04-24 02:04:00,
2013-04-23 22:09:00,38.7,30.4,30.16,North,8,0.0,0.0,72,0.00,,CLR,0.00,VWS V14.01,2013-04-24 02:09:00,
2013-04-23 22:14:00,38.5,30.2,30.16,North,357,0.0,0.0,72,0.00,,CLR,0.00,VWS V14.01,2013-04-24 02:14:00,
2013-04-23 22:20:00,38.7,31.1,30.16,NE,43,4.0,4.0,74,0.00,,CLR,0.00,VWS V14.01,2013-04-24 02:20:00,
2013-04-23 22:25:00,39.4,31.8,30.16,WSW,247,0.0,0.0,74,0.00,,CLR,0.00,VWS V14.01,2013-04-24 02:25:00,
2013-04-23 22:30:00,39.6,32.0,30.16,North,357,3.1,3.1,74,0.00,,CLR,0.00,VWS V14.01,2013-04-24 02:30:00,
2013-04-23 22:35:00,39.4,31.8,30.16,North,350,0.0,0.0,74,0.00,,CLR,0.00,VWS V14.01,2013-04-24 02:35:00,
2013-04-23 22:40:00,39.4,31.8,30.16,North,349,0.0,0.0,74,0.00,,CLR,0.00,VWS V14.01,2013-04-24 02:40:00,
2013-04-23 22:45:00,39.4,31.8,30.13,NNE,12,0.0,0.0,74,0.00,,CLR,0.00,VWS V14.01,2013-04-24 02:45:00,
2013-04-23 22:50:00,39.2,31.3,30.13,NNE,12,0.0,0.0,73,0.00,,CLR,0.00,VWS V14.01,2013-04-24 02:50:00,
2013-04-23 22:55:00,39.7,32.5,30.13,NW,316,0.0,0.0,75,0.00,,CLR,0.00,VWS V14.01,2013-04-24 02:55:00,
2013-04-23 23:00:00,39.9,32.7,30.13,NNE,19,0.0,0.0,75,0.00,,CLR,0.00,VWS V14.01,2013-04-24 03:00:00,
2013-04-23 23:05:00,39.6,32.3,30.13,NNE,19,0.0,0.0,75,0.00,,CLR,0.00,VWS V14.01,2013-04-24 03:05:00,
2013-04-23 23:10:00,39.2,31.6,30.13,NNE,19,0.0,0.0,74,0.00,,CLR,0.00,VWS V14.01,2013-04-24 03:10:00,
2013-04-23 23:15:00,39.0,31.8,30.13,NNW,334,0.0,0.0,75,0.00,,CLR,0.00,VWS V14.01,2013-04-24 03:15:00,
2013-04-23 23:21:00,39.2,32.0,30.13,NNW,334,0.0,0.0,75,0.00,,CLR,0.00,VWS V14.01,2013-04-24 03:21:00,
2013-04-23 23:26:00,39.0,31.8,30.13,WSW,256,0.0,0.0,75,0.00,,CLR,0.00,VWS V14.01,2013-04-24 03:26:00,
2013-04-23 23:31:00,38.8,31.6,30.13,WNW,292,0.0,0.0,75,0.00,,CLR,0.00,VWS V14.01,2013-04-24 03:31:00,
2013-04-23 23:36:00,38.5,31.3,30.13,North,0,0.0,0.0,75,0.00,,CLR,0.00,VWS V14.01,2013-04-24 03:36:00,
2013-04-23 23:41:00,38.5,31.6,30.13,North,350,2.7,2.7,76,0.00,,CLR,0.00,VWS V14.01,2013-04-24 03:41:00,
2013-04-23 23:46:00,39.4,33.1,30.13,NNE,17,2.2,2.2,78,0.00,,CLR,0.00,VWS V14.01,2013-04-24 03:46:00,
2013-04-23 23:51:00,40.3,34.6,30.10,NNW,334,3.1,3.1,80,0.00,,CLR,0.00,VWS V14.01,2013-04-24 03:51:00,
2013-04-23 23:56:00,39.9,33.6,30.10,North,353,0.0,0.0,78,0.00,,CLR,0.00,VWS V14.01,2013-04-24 03:56:00,